Вернуться в каталог

ICEYE-X61

АктивенНаукаSSO
NORAD 66754·PAYLOAD·🇫🇮 Finland

Запущен Nov 28, 2025 с Vandenberg Space Force Base

Loading…

Ближайшие Пролёты (ближайшие 24 часа)

TLE

СвежийSource: Space-Track

Эпоха: Sep 14, 2026, 04:09 UTC

1 66754U 25276CS  26257.17335167  .00002397  00000-0  11776-3 0  9991
2 66754  97.4128 328.9980 0004165  46.6051 313.5529 15.19006555 43921

Отслеживайте ICEYE-X61 в реальном времени с AllMySat

Download on the App Store